UAL13S KJFK-KBOS

Flight info

Callsign UAL13S
Flight time N/A
Altitude 19000
Route MERIT ROBUC3
Aircraft A320/M-SDE3FGHIRWY/LB1

Departure

Time 2026-04-30 22:42
Airport John F. Kennedy International Airport (KJFK)

Arrival

Time N/A
Airport Boston Logan International Airport (KBOS)
Time Latitude Longitude Altitude Speed Heading
2026-04-30 22:22 40.63844 -73.78049 16 ft 0 kts 263°
2026-04-30 22:30 40.63844 -73.78047 16 ft 2 kts 263°
2026-04-30 22:31 40.63857 -73.77962 17 ft 4 kts 246°
2026-04-30 22:32 40.63879 -73.77931 16 ft 0 kts 174°
2026-04-30 22:36 40.63833 -73.77925 17 ft 7 kts 174°
2026-04-30 22:36 40.63792 -73.77919 16 ft 11 kts 173°
2026-04-30 22:37 40.63552 -73.77823 17 ft 11 kts 119°
2026-04-30 22:37 40.63510 -73.77820 17 ft 8 kts 217°
2026-04-30 22:37 40.63389 -73.77925 16 ft 13 kts 211°
2026-04-30 22:38 40.63338 -73.77957 17 ft 2 kts 162°
2026-04-30 22:38 40.63319 -73.77830 18 ft 11 kts 121°
2026-04-30 22:39 40.63283 -73.77753 21 ft 11 kts 121°
2026-04-30 22:39 40.63036 -73.77207 16 ft 21 kts 118°
2026-04-30 22:40 40.62850 -73.77164 16 ft 13 kts 211°
2026-04-30 22:41 40.63225 -73.78115 19 ft 115 kts 301°
2026-04-30 22:41 40.64325 -73.80476 496 ft 163 kts 301°
2026-04-30 22:42 40.63671 -73.86195 2253 ft 195 kts 221°
2026-04-30 22:43 40.60885 -73.87063 2926 ft 243 kts 161°
2026-04-30 22:43 40.58663 -73.83636 4364 ft 271 kts 103°
2026-04-30 22:44 40.59625 -73.78875 6076 ft 285 kts 51°
2026-04-30 22:45 40.65044 -73.70884 9350 ft 301 kts 47°
2026-04-30 22:45 40.67921 -73.66668 10374 ft 328 kts 47°
2026-04-30 22:46 40.71149 -73.61967 11154 ft 356 kts 47°